Location: Newark
(37.9844°N, 120.3817°W)
Time: 03:31:05
(UTC+00:00)

Envisat - Visible Passes

Search period start: 14 October 2019 00:00
Search period end: 24 October 2019 00:00
Orbit: 764 x 766 km, 98.1° (Epoch: 13 October)

Date Brightness Start Highest point End Pass type
(mag) Time Alt. Az. Time Alt. Az. Time Alt. Az.
14 Oct 4.6 02:50:08 10° SSW 02:54:46 36° W 02:59:27 10° NNW visible
15 Oct 3.1 02:12:51 10° SSE 02:17:56 84° WSW 02:23:02 10° NNW visible
16 Oct 5.6 03:16:45 10° SW 03:20:27 20° W 03:24:10 10° NW visible
17 Oct 4.1 02:38:37 10° S 02:43:28 46° W 02:48:21 10° NNW visible
18 Oct 2.9 02:01:37 10° SSE 02:06:41 76° ENE 02:11:46 10° N visible
18 Oct 6.3 03:45:05 10° WSW 03:46:13 11° W 03:47:21 10° WNW visible
19 Oct 5.2 03:04:55 10° SSW 03:09:05 26° W 03:13:18 10° NW visible
19 Oct 6.5 13:37:51 10° ENE 13:40:05 13° E 13:42:19 10° ESE visible
20 Oct 3.6 02:27:11 10° S 02:32:11 60° W 02:37:13 10° NNW visible
21 Oct 3.0 01:50:28 10° SSE 01:55:27 60° ENE 02:00:27 10° N visible
21 Oct 6.0 03:32:10 10° WSW 03:34:50 14° W 03:37:30 10° WNW visible
22 Oct 4.8 02:53:14 10° SSW 02:57:46 33° W 03:02:20 10° NNW visible
23 Oct 3.2 02:15:50 10° S 02:20:54 77° WSW 02:26:01 10° NNW visible
